Student's Login

Local Time

LGIR WEATHER

[source: ADDS]
METAR
LGIR 160820Z 01026KT 9999 FEW012 FEW018TCU SCT025 BKN060 08/03 Q1014 NOSIG =
TAF LGIR 160500Z 1606/1706 34030G40KT 9999 SCT020 BKN030 PROB40 TEMPO 1606/1612 5000 RA BKN020 BKN080 PROB30 TEMPO 1606/1612 4000 TSRA SCT010 FEW018CB BKN020 BKN070 BECMG 1610/1612 34015G25KT BECMG 1616/1618 31012KT
TAF
TAF LGIR 160500Z 1606/1706 34030G40KT 9999 SCT020 BKN030 PROB40 TEMPO 1606/1612 5000 RA BKN020 BKN080 PROB30 TEMPO 1606/1612 4000 TSRA SCT010 FEW018CB BKN020 BKN070 BECMG 1610/1612 34015G25KT BECMG 1616/1618 31012KT =

Czech sport aircraft

Cretan Eagle Aviation Ltd. is proud to be appointed as an authorized Czech Sport Aircraft Promoter for Greece
and Cyprus. Please click on the link or give us a call for any additional information on Czech Sport Aircraft.

 

 

On-line PPL QUIZ

Student members can join our free on-line database to practice on PPL quizzes and get ready for the real
exams. Becoming a member and getting access to our system is FREE for all of our students.

 

Paypal Verified

Payments for any Course can be made by Bank Transfer, Cash and PayPal secure payment.

 

Go to top